FENGYUN 1C DEB, 30765

Orbit data source: Space-Track

FENGYUN 1C DEB, 30765 is space debris in SSO originally from a launch on Mon, 10 May 1999 UTC launched from the Taiyaun Space Center, China (TSC). Fengyun 1C debris stems from the Chinese weather satellite Fengyun-1C, which was intentionally destroyed by a Chinese anti-satellite missile in 2007. This event dramatically increased the amount of space debris, with thousands of trackable fragments posing hazards to satellites and human spaceflight. The Fengyun 1C debris cloud has become a focal point in discussions about space sustainability and the need for international regulations to prevent the creation of new debris.

Loading next visibility...
Identifier
30765, 1999-025AUB
Orbit
SSO
Country
Flag of CNCN / PRC
Related business
Manufacturer
Unknown
Mission
Spacecraft
Bus & Motor
Unknown
Mass
Unknown
Launch date (UTC)
1999-05-10 (27 years ago)
Launch vehicle
Unknown
Launch site
Taiyaun Space Center, China (TSC)
Object type
Payload
Rocket body
Debris
Shape & HBR
Unknown shape, 0.1 m
Radar Cross Section
Medium (>0.1 m² and <1 m²)

Expand to show TLE details & history
Last TLE update: 15 hours ago

TLE from 15 hours ago
0 FENGYUN 1C DEB
1 30765U 99025AUB 26208.13114676  .00001029  00000-0  53944-3 0  9993
2 30765  98.7659 255.4343 0065624 283.6912 141.9076 14.15335421    15
Epoch: 2026-07-27T03:08Z
TLE epoch observation values (Epoch: 2026-07-27T03:08:51.080Z)
Latitude
64.68303°
Longitude
-115.51781°
Altitude
889.699 km
Speed
7.394 km/s
True Right ascension
15h 46m 03s
True Declination
64° 33' 08"
Sunlit
Object was in daylight at epoch
Visualization orbit readout
Latitude
Unknown
Longitude
Unknown
Altitude
Unknown
Speed
Unknown
Apparent Right ascension
Unknown
Apparent Declination
Unknown
Sunlit
N/A
Visualization observer readout
Local Sidereal Time
07:11:41
Azimuth
Unknown
Elevation
Unknown
Doppler factor
Unknown
Orbital elements
Apogee altitude
885.696 km
Perigee altitude
790.981 km
Semi-major axis
7,216.476 km
Eccentricity
0.00656
Inclination
98.7659°
RAAN
255.4343°
Arg. of periapsis
283.6912°
True anomaly
142.36855°
Mean anomaly
141.9076°
Eccentric anomaly
142.13837°
Mean motion
3.54043 °/min
Orbital period
101.68 mins
BSTAR
0.00053944
Loading maneuver chart data...
Computing Atmospheric mass density...

Documentation

Showing up to 5 results
|